GW2402 Weather Reports


time (UTC)temp
C
wind
direction
speed
KPH
gust
KPH
rain 1hr
cm
rain 24hr
cm
rain mn
cm
humidity
%
barometer
mb
20260506214551 21 103 1.6 8.0 0.00 0.00 0.00 71 1011.6
20260506213046 22 0 0.0 6.4 0.00 0.00 0.00 70 1011.4
20260506211545 22 0 1.6 9.7 0.00 0.00 0.00 70 1011.3
20260506210044 22 108 0.0 3.2 0.00 0.00 0.00 72 1011.3
20260506204549 22 151 1.6 8.0 0.00 0.00 0.00 72 1011.9
20260506203049 22 291 0.0 4.8 0.00 0.00 0.00 74 1011.7
20260506201547 23 229 3.2 11.3 0.00 0.00 0.00 72 1011.5
20260506200049 25 0 0.0 3.2 0.00 0.00 0.00 73 1011.0
20260506194553 25 0 0.0 1.6 0.00 0.00 0.00 73 1011.0
20260506193049 25 98 0.0 3.2 0.00 0.00 0.00 73 1010.9
20260506191549 25 243 0.0 3.2 0.00 0.00 0.00 75 1011.1
20260506190046 25 0 0.0 4.8 0.00 0.00 0.00 76 1011.2
20260506184544 24 0 0.0 4.8 0.00 0.00 0.00 77 1010.9
20260506183049 24 280 0.0 3.2 0.00 0.00 0.00 77 1011.3
20260506181547 23 0 0.0 4.8 0.00 0.00 0.00 77 1011.3
20260506180047 22 266 0.0 0.0 0.00 0.00 0.00 80 1011.5
20260506174548 22 0 0.0 3.2 0.00 0.00 0.00 79 1011.5
20260506173104 22 100 0.0 3.2 0.00 0.00 0.00 80 1011.5
20260506171548 21 0 0.0 1.6 0.00 0.00 0.00 82 1011.4
20260506170056 20 290 0.0 1.6 0.00 0.00 0.00 83 1011.7
20260506164609 19 252 0.0 1.6 0.00 0.00 0.00 88 1012.0
20260506163047 19 257 1.6 6.4 0.00 0.00 0.00 86 1012.7
20260506161542 20 260 0.0 4.8 0.00 0.00 0.00 85 1012.6
20260506160104 23 88 1.6 9.7 0.00 0.00 0.00 81 1012.3
20260506154550 25 0 0.0 0.0 0.00 0.00 0.00 89 1011.5
20260506153042 25 0 0.0 0.0 0.00 0.00 0.00 90 1011.1
20260506151543 25 0 0.0 0.0 0.00 0.00 0.00 90 1010.8
20260506150049 25 0 0.0 0.0 0.00 0.00 0.00 90 1010.4
20260506144547 24 0 0.0 0.0 0.00 0.00 0.00 91 1010.2
20260506143050 24 0 0.0 0.0 0.00 0.00 0.00 91 1009.9
20260506141604 24 0 0.0 0.0 0.00 0.00 0.00 91 1010.0
20260506140047 24 0 0.0 0.0 0.00 0.00 0.00 91 1009.8
20260506134542 24 0 0.0 0.0 0.00 0.00 0.00 91 1009.4
20260506133048 24 0 0.0 0.0 0.00 0.00 0.00 92 1009.2
20260506131548 23 0 0.0 0.0 0.00 0.00 0.00 92 1009.1
20260506130047 23 0 0.0 0.0 0.00 0.00 0.00 92 1009.1
20260506124547 23 0 0.0 0.0 0.00 0.00 0.00 92 1009.0
20260506123046 23 0 0.0 0.0 0.00 0.00 0.00 92 1009.0
20260506121548 23 0 0.0 0.0 0.00 0.00 0.00 92 1008.9
20260506120115 23 0 0.0 0.0 0.00 0.00 0.00 92 1008.8
20260506114550 23 0 0.0 0.0 0.00 0.00 0.00 92 1008.9
20260506113047 23 0 0.0 0.0 0.00 0.00 0.00 92 1008.7
20260506111552 23 0 0.0 0.0 0.00 0.00 0.00 92 1008.7
20260506110049 23 0 0.0 0.0 0.00 0.00 0.00 92 1008.7
20260506104548 23 0 0.0 1.6 0.00 0.00 0.00 92 1008.8
20260506103053 23 0 0.0 0.0 0.00 0.00 0.00 92 1008.5
20260506101548 23 0 0.0 0.0 0.00 0.00 0.00 92 1008.3
20260506100045 23 0 0.0 1.6 0.00 0.00 0.00 92 1008.1
20260506094547 23 0 0.0 1.6 0.00 0.00 0.00 91 1007.9
20260506093047 23 0 0.0 0.0 0.00 0.00 0.00 91 1007.7
20260506091543 23 272 0.0 1.6 0.00 0.00 0.00 90 1007.5
20260506090047 23 0 0.0 0.0 0.00 0.00 0.00 90 1007.5
20260506084546 23 330 0.0 0.0 0.00 0.00 0.00 90 1007.6
20260506083051 23 0 0.0 0.0 0.00 0.00 0.00 90 1007.7
20260506081548 23 0 0.0 1.6 0.00 0.00 0.00 90 1007.6
20260506073053 24 0 0.0 6.4 0.00 0.00 0.00 90 1008.0
20260506071551 23 17 0.0 6.4 0.00 0.00 0.00 90 1008.2
20260506070105 23 289 0.0 3.2 0.00 0.00 0.00 91 1008.2
20260506061547 24 0 0.0 1.6 0.00 0.00 0.00 90 1008.2
20260506044554 25 269 0.0 3.2 0.00 0.00 0.00 88 1008.3
20260506043045 25 264 0.0 1.6 0.00 0.00 0.00 87 1008.3
20260506041553 25 0 0.0 3.2 0.00 0.00 0.00 87 1008.0
20260506040043 25 0 0.0 1.6 0.00 0.00 0.00 87 1007.9
20260506034547 25 263 0.0 1.6 0.00 0.00 0.00 87 1007.8
20260506033045 25 0 0.0 0.0 0.00 0.00 0.00 86 1007.7
20260506031555 25 0 0.0 1.6 0.00 0.00 0.00 85 1007.5
20260506030055 25 0 0.0 1.6 0.00 0.00 0.00 85 1007.1
20260506024539 26 0 0.0 1.6 0.00 0.00 0.00 84 1006.8
20260506023047 26 0 0.0 1.6 0.00 0.00 0.00 83 1006.5
20260506021542 26 0 0.0 1.6 0.00 0.00 0.00 82 1006.4
20260506020038 26 0 0.0 0.0 0.00 0.00 0.00 81 1006.1
20260506014546 26 0 0.0 0.0 0.00 0.00 0.00 80 1005.9
20260506013049 27 0 0.0 0.0 0.00 0.00 0.00 80 1005.8
20260506011555 27 0 0.0 0.0 0.00 0.00 0.00 78 1005.9
20260506010041 27 0 0.0 0.0 0.00 0.00 0.00 78 1005.9
20260506004606 27 0 0.0 0.0 0.00 0.00 0.00 77 1005.6
20260506003046 27 0 0.0 0.0 0.00 0.00 0.00 76 1005.7
20260506001544 28 0 0.0 1.6 0.00 0.00 0.00 76 1005.5
20260506000045 28 0 0.0 1.6 0.00 0.00 0.00 75 1005.5
20260505234610 28 0 0.0 1.6 0.00 0.00 0.00 75 1005.4
20260505233046 28 34 0.0 8.0 0.00 0.00 0.00 74 1005.6
20260505231546 28 0 0.0 3.2 0.00 0.00 0.00 75 1005.4
20260505230047 28 252 0.0 6.4 0.00 0.00 0.00 73 1005.3
20260505224539 28 0 0.0 3.2 0.00 0.00 0.00 73 1005.2
20260505223059 28 0 0.0 3.2 0.00 0.00 0.00 73 1005.4
20260505221559 29 319 0.0 3.2 0.00 0.00 0.00 72 1005.3
20260505220050 29 13 0.0 4.8 0.00 0.00 0.00 71 1005.6